Regional Weather Roundup
Issued by NWS

Home | Current Version | Previous Version | Graphics & Text | Print | Product List | Glossary On
Versions: 1 2 3 4 5 6 7 8 9 10 11 12 13 14 15 16 17 18 19 20 21 22 23 24 25 26 27 28 29 30 31 32 33 34 35 36 37 38 39 40 41 42 43 44 45 46 47 48 49 50
000
ASUS43 KMPX 290901
RWRMN
WEATHER ROUNDUP FOR MINNESOTA
NATIONAL WEATHER SERVICE TWIN CITIES/CHANHASSEN MN
400 AM CDT FRI APR 29 2016


NOTE: "FAIR" INDICATES FEW OR NO CLOUDS BELOW 12,000 FEET WITH NO
SIGNIFICANT WEATHER AND/OR OBSTRUCTIONS TO VISIBILITY. N/A MEANS
CURRENT SKY AND/OR WEATHER CONDITIONS ARE NOT AVAILABLE.

MNZ060>063-068>070-291000-
   Twin Cities Metro

CITY           SKY/WX    TMP DP  RH WIND       PRES   REMARKS
TWIN CITIES    CLOUDY    36  34  92 N3        30.16R
ST PAUL        CLOUDY    35  34  96 CALM      30.17R
CRYSTAL        FOG       35  33  92 CALM      30.15R VSB 1/4
BLAINE         CLOUDY    39  39 100 CALM      30.15S FOG
EDEN PRAIRIE   CLOUDY    37  34  89 CALM      30.15R FOG
SOUTH ST PAUL  CLOUDY    35  35  98 CALM      30.16R FOG
LAKE ELMO      FAIR      34  34 100 CALM      30.16S FOG
$$
MNZ001>005-007-008-013>017-022>024-027-028-291000-
   Northwest Minnesota

CITY           SKY/WX    TMP DP  RH WIND       PRES   REMARKS
BEMIDJI        CLOUDY    34  27  76 CALM      30.15R
HALLOCK        CLOUDY    36  27  69 NE3       30.20R
ROSEAU         CLOUDY    36  28  75 N3        30.21R
WARROAD        CLEAR     34  30  86 CALM      30.21R
THIEF RVR FALL PTCLDY    37  27  65 E6        30.19R
CROOKSTON      CLOUDY    39  28  65 E8        30.18R
FOSSTON        CLOUDY    36  27  69 E6        30.17R
DETROIT LAKES  CLOUDY    37  36  93 CALM      30.16R
MOORHEAD       CLOUDY    37  34  87 SE5       30.16R
PARK RAPIDS    CLOUDY    35  31  85 CALM      30.15R
MAHNOMEN       FAIR      39  29  67 CALM      30.15R
$$
MNZ006-009>011-018-025>026-291000-
   North Central Minnesota

CITY           SKY/WX    TMP DP  RH WIND       PRES   REMARKS
BAUDETTE       CLOUDY    32  27  81 CALM      30.19R
FLAG ISLAND    CLEAR     39  34  81 N6        30.20R
INTL FALLS     PTCLDY    31  27  85 N3        30.17R
WASKISH        PTCLDY    36  30  80 NE3       30.17R
BIG FORK       CLOUDY    28  27  93 CALM      30.16S
LONGVILLE      PTCLDY    28  28 100 CALM      30.16R
GRAND RAPIDS   CLEAR     28  21  74 CALM      30.17S
CRANE LAKE     CLOUDY    27  27 100 CALM      30.18S
ORR            PTCLDY    34  25  69 CALM      30.14R
COOK           CLOUDY    28  27  93 CALM      30.17R
WALKER         FAIR      34  24  67 CALM      30.15R
$$
MNZ012-019>021-037-291000-
   Northeast Minnesota

CITY           SKY/WX    TMP DP  RH WIND       PRES   REMARKS
DULUTH         CLOUDY    32  25  75 N8        30.14R WCI  25
ELY            CLOUDY    36  30  80 CALM      30.16S
HIBBING        CLOUDY    25  24  96 CALM      30.16R
EVELETH        CLOUDY    32  30  93 CALM      30.17R
DULUTH HARBOR  CLOUDY    36  32  87 CALM      30.18R
TWO HARBORS    CLOUDY    34  27  75 CALM      30.14R
SILVER BAY     PTCLDY    30  27  86 CALM      30.14R
GRAND MARAIS     N/A     39  27  62 VRB5      30.16S
G MARAIS ARPRT CLOUDY    28  23  80 N7        30.15R WCI  21
$$
MNZ029>031-032-039>041-046>048-054>057-064-291000-
   West Central Minnesota

CITY           SKY/WX    TMP DP  RH WIND       PRES   REMARKS
FERGUS FALLS   CLOUDY    37  37 100 SE3       30.15R
WHEATON        CLOUDY    41  39  93 S3        30.19R
MORRIS         CLOUDY    37  36  93 SW5       30.16R
ALEXANDRIA     CLOUDY    38  36  92 CALM      30.16R
ELBOW LAKE     FAIR      40  38  95 CALM      30.16S
WADENA         CLOUDY    34  32  93 CALM      30.15S
GLENWOOD       CLOUDY    36  36 100 N7        30.15S
APPLETON       CLOUDY    39  37  93 CALM      30.17R
BENSON         CLOUDY    36  36 100 W3        30.17R
ORTONVILLE     PTCLDY    37  36  93 CALM      30.17R
MADISON        FOG       36  36 100 CALM      30.16S VSB 1/2
WILLMAR        CLOUDY    39  39 100 SW6       30.17R FOG
$$
MNZ033>034-036-042>043-049>051-058-059-291000-
   Central Minnesota

CITY           SKY/WX    TMP DP  RH WIND       PRES   REMARKS
ST CLOUD       CLOUDY    35  35 100 CALM      30.15R FOG
SAUK CENTRE    FOG       33  33 100 N3        30.16S VSB 1
PAYNESVILLE    CLOUDY    37  37 100 CALM      30.16R
AITKIN         CLOUDY    30  27  86 CALM      30.15S
PINE RIVER     CLOUDY    30  27  86 CALM      30.19R
BRAINERD       CLOUDY    31  25  78 CALM      30.16R
STAPLES        CLOUDY    36  36 100 CALM      30.15S
LONG PRAIRIE   FAIR      34  34 100 CALM      30.15S
LITTLE FALLS   CLOUDY    34  32  93 CALM      30.16R FOG
LITCHFIELD     CLOUDY    37  37 100 CALM      30.16R FOG
BUFFALO        CLOUDY    35  34  94 CALM      30.16S FOG
MAPLE LAKE     FOG       37  36  98 NW3       30.16R VSB 3/4
HUTCHINSON     CLOUDY    37  36  98 CALM      30.17R
$$
MNZ037-044-045-052-053-291000-
   East Central Minnesota

CITY           SKY/WX    TMP DP  RH WIND       PRES   REMARKS
PRINCETON      FOG       36  34  93 CALM      30.16R VSB 1/2
MORA           CLOUDY    32  28  86 CALM      30.17S
CAMBRIDGE      HAZE      34  28  80 CALM      30.14R VSB 3/4
RUSH CITY      CLOUDY    30  28  91 N3        30.16R
MOOSE LAKE     CLOUDY    30  28  93 CALM      30.15R
HINCKLEY       FAIR      32  32 100 N6        30.16R WCI  26
CLOQUET        CLOUDY    28  25  86 NW6       30.15R WCI  22
MCGREGOR       CLOUDY    32  28  86 NW3       30.17R
$$
MNZ071>073-080-081-089-090-097-098-291000-
   Southwest Minnesota

CITY           SKY/WX    TMP DP  RH WIND       PRES   REMARKS
MONTEVIDEO     CLOUDY    39  39 100 CALM      30.18R FOG
GRANITE FALLS  CLOUDY    39  38  95 CALM      30.18S
CANBY          CLOUDY    41  41  99 CALM      30.17S FOG
MARSHALL       PTCLDY    35  35 100 N6        30.15S WCI  30
REDWOOD FALLS  PTCLDY    37  34  89 NW3       30.16R
OLIVIA         CLOUDY    37  36  93 CALM      30.16R
PIPESTONE      CLOUDY    37  36  93 NE3       30.12S
WINDOM         CLOUDY    37  37 100 CALM      30.13S FOG
WORTHINGTON    CLOUDY    38  37  97 NE6       30.12F
JACKSON        CLOUDY    39  36  87 NE6       30.12S FOG
TRACY          CLOUDY    35  35  99 CALM      30.15S FOG
SLAYTON        CLOUDY    37  37  97 NE3       30.13F
$$
MNZ065>067-074>077-082>085-091>093-291000-
   South Central Minnesota

CITY           SKY/WX    TMP DP  RH WIND       PRES   REMARKS
MANKATO        CLOUDY    37  34  87 E3        30.14S
NEW ULM        CLOUDY    37  36  93 CALM      30.16R
ST JAMES       CLOUDY    34  34 100 N3        30.16R
FAIRMONT       CLOUDY    39  30  70 N7        30.13R
GLENCOE        CLOUDY    38  38  98 CALM      30.15R
FARIBAULT      MOCLDY    36  36 100 CALM      30.14S
OWATONNA       CLOUDY    37  36  93 CALM      30.13S
WASECA         CLOUDY    36  34  93 E3        30.14S
ALBERT LEA     CLOUDY    39  39 100 N6        30.12R
$$
MNZ078>079-086>088-094>096-291000-
   Southeast Minnesota

CITY           SKY/WX    TMP DP  RH WIND       PRES   REMARKS
ROCHESTER      CLOUDY    37  36  96 N5        30.12R
RED WING       CLEAR     37  36  93 NE3       30.14R
STANTON        CLOUDY    36  33  91 CALM      30.14R
DODGE CENTER   CLOUDY    37  36  93 N3        30.12S
WINONA         CLOUDY    39  36  87 CALM      30.13R
AUSTIN         CLOUDY    37  36  93 NE5       30.12R
PRESTON        CLOUDY    36  35  94 N7        30.11R
$$
ABBREVIATIONS USED IN REMARKS
   TC - TEMPERATURES IN CELSIUS
  WCI - WIND CHILL INDEX
   HX - HEAT INDEX
  VSB - VISIBILITY
$$




USA.gov is the U.S. government's official web portal to all federal, state and local government web resources and services.